[ hide orbit diagram ]
For accurate long-term ephemerides, please instead use our Horizons system.This orbit viewer was implemented using two-body methods, and hence should not be used for determining accurate long-term trajectories (over several years or decades) or planetary encounter circumstances.
Orbital Elements at Epoch 2459000.5 (2020-May-31.0) TDB
Reference: JPL 15 (heliocentric ecliptic J2000)
Element | Value | Uncertainty (1-sigma) | Units |
e | .1055769746171753 | 7.8031e-08 | |
a | 3.032756598962465 | 5.9334e-08 | au |
q | 2.712567332493734 | 2.0439e-07 | au |
i | 6.344942616820485 | 6.6205e-06 | deg |
node | 135.4622231854623 | 8.8931e-05 | deg |
peri | 358.1184009912739 | 0.00010291 | deg |
M | 67.61125791764296 | 5.4346e-05 | deg |
tp | 2458638.197545059035 (2019-Jun-03.69754506) | 0.00028566 | TDB |
period | 1929.100090662745 5.28 | 5.6613e-05 1.55e-07 | d yr |
n | .1866155114203128 | 5.4766e-09 | deg/d |
Q | 3.352945865431196 | 6.5599e-08 | au |
|
| | Orbit Determination Parameters
Additional Information
|
[ show covariance matrix ]
Physical Parameter Table
Parameter |
Symbol |
Value |
Units |
Sigma |
Reference |
Notes |
absolute magnitude |
H |
16.6 |
|
n/a |
MPO423574 |
|
|
437450 (2013 YL10) Discovered 2007-Nov-02 by Mt. Lemmon Survey at Mount Lemmon |
Reference: | Last Updated: 2015-06-04 |
|
[ show close-approach data ]
|